QPF
0.03 0.03 0.03 0.02 0.02 0.02 0.03 0.03 0.02 0.01 0.01 0.01 0.01 0.01 0.01 0.01 0.01 0.00 0.00 0.00 0.00 0.00 0.00 0.00 0.01 0.01 0.01 0.01 0.02 0.02 0.03 0.03 0.02 0.02 0.03 0.02 0.01 0.01 0.01 0.01 0.01 0.01 0.02
0.02 0.02 0.03 0.03 0.02 0.02 0.03 0.03 0.02 0.01 0.01 0.01 0.01 0.02 0.02 0.02 0.01 0.01 0.01 0.00 0.00 0.00 0.00 0.01 0.01 0.01 0.01 0.01 0.01 0.02 0.02 0.03 0.03 0.03 0.04 0.03 0.02 0.01 0.01 0.01 0.01 0.00 0.01
0.01 0.01 0.01 0.02 0.02 0.02 0.02 0.03 0.03 0.04 0.03 0.02 0.02 0.02 0.02 0.02 0.01 0.01 0.01 0.01 0.01 0.00 0.00 0.01 0.01 0.01 0.01 0.01 0.02 0.02 0.02 0.04 0.04 0.04 0.04 0.05 0.04 0.02 0.01 0.02 0.01 0.01 0.01
0.02 0.02 0.01 0.01 0.02 0.02 0.02 0.03 0.03 0.04 0.05 0.04 0.03 0.02 0.02 0.02 0.02 0.01 0.01 0.01 0.01 0.01 0.01 0.00 0.01 0.01 0.01 0.01 0.02 0.02 0.03 0.03 0.03 0.03 0.03 0.04 0.04 0.04 0.03 0.03 0.03 0.03 0.02
0.02 0.02 0.02 0.02 0.01 0.01 0.02 0.02 0.01 0.02 0.03 0.03 0.03 0.03 0.02 0.02 0.02 0.02 0.01 0.01 0.01 0.01 0.01 0.01 0.01 0.01 0.01 0.01 0.02 0.02 0.02 0.02 0.03 0.03 0.03 0.03 0.04 0.04 0.03 0.03 0.02 0.03 0.03
0.01 0.01 0.01 0.02 0.02 0.02 0.02 0.02 0.03 0.03 0.03 0.03 0.02 0.02 0.02 0.02 0.02 0.02 0.01 0.01 0.01 0.01 0.01 0.01 0.01 0.01 0.01 0.01 0.01 0.02 0.02 0.02 0.02 0.03 0.04 0.04 0.04 0.04 0.03 0.02 0.02 0.02 0.03
0.01 0.01 0.01 0.01 0.02 0.02 0.02 0.02 0.03 0.03 0.03 0.03 0.03 0.01 0.01 0.01 0.02 0.02 0.01 0.01 0.01 0.01 0.01 0.01 0.01 0.01 0.01 0.01 0.02 0.02 0.01 0.02 0.03 0.04 0.04 0.04 0.04 0.04 0.04 0.03 0.02 0.01 0.02
0.01 0.01 0.01 0.00 0.01 0.02 0.02 0.02 0.02 0.02 0.02 0.02 0.03 0.03 0.02 0.01 0.02 0.02 0.02 0.01 0.01 0.01 0.01 0.01 0.01 0.01 0.01 0.02 0.02 0.02 0.02 0.02 0.02 0.03 0.03 0.04 0.05 0.04 0.04 0.04 0.03 0.02 0.02
0.02 0.02 0.01 0.01 0.01 0.01 0.02 0.02 0.01 0.01 0.02 0.02 0.02 0.03 0.03 0.03 0.03 0.02 0.02 0.01 0.01 0.00 0.00 0.01 0.01 0.01 0.02 0.03 0.02 0.02 0.02 0.02 0.02 0.03 0.03 0.04 0.05 0.05 0.05 0.05 0.04 0.04 0.04
0.02 0.04 0.05 0.03 0.02 0.01 0.02 0.02 0.01 0.01 0.01 0.02 0.03 0.02 0.02 0.02 0.03 0.02 0.02 0.01 0.01 0.01 0.00 0.01 0.01 0.01 0.01 0.02 0.02 0.02 0.02 0.02 0.03 0.03 0.03 0.03 0.03 0.04 0.06 0.05 0.05 0.04 0.03
0.02 0.02 0.07 0.06 0.03 0.02 0.02 0.02 0.02 0.03 0.03 0.03 0.04 0.03 0.01 0.01 0.02 0.03 0.02 0.01 0.01 0.01 0.01 0.01 0.01 0.01 0.01 0.02 0.02 0.03 0.03 0.03 0.03 0.05 0.05 0.04 0.03 0.03 0.04 0.05 0.05 0.04 0.03
0.01 0.02 0.04 0.04 0.02 0.02 0.02 0.02 0.03 0.02 0.03 0.03 0.03 0.04 0.03 0.02 0.02 0.02 0.02 0.02 0.02 0.01 0.01 0.01 0.00 0.01 0.01 0.01 0.02 0.02 0.03 0.03 0.03 0.04 0.06 0.06 0.04 0.03 0.03 0.04 0.04 0.04 0.03
0.01 0.02 0.02 0.02 0.02 0.01 0.01 0.01 0.02 0.02 0.02 0.02 0.02 0.02 0.02 0.02 0.02 0.02 0.02 0.02 0.02 0.01 0.01 0.01 0.01 0.01 0.01 0.01 0.02 0.02 0.02 0.03 0.04 0.04 0.05 0.05 0.04 0.03 0.03 0.04 0.03 0.03 0.03
0.02 0.02 0.02 0.01 0.01 0.01 0.02 0.02 0.02 0.02 0.02 0.02 0.02 0.02 0.02 0.02 0.02 0.02 0.01 0.01 0.01 0.01 0.02 0.01 0.02 0.03 0.02 0.01 0.01 0.01 0.02 0.04 0.04 0.03 0.03 0.03 0.04 0.04 0.04 0.04 0.04 0.04 0.04
0.02 0.02 0.02 0.02 0.02 0.02 0.02 0.02 0.02 0.02 0.02 0.03 0.02 0.02 0.02 0.02 0.02 0.02 0.02 0.02 0.02 0.02 0.02 0.02 0.03 0.02 0.02 0.02 0.02 0.02 0.03 0.04 0.04 0.03 0.02 0.03 0.04 0.05 0.04 0.04 0.04 0.04 0.05
0.01 0.02 0.02 0.02 0.03 0.03 0.03 0.03 0.04 0.04 0.03 0.05 0.04 0.03 0.03 0.03 0.02 0.02 0.02 0.02 0.02 0.02 0.03 0.03 0.03 0.02 0.02 0.03 0.03 0.04 0.04 0.04 0.03 0.03 0.02 0.02 0.03 0.05 0.06 0.05 0.05 0.05 0.04
0.02 0.02 0.02 0.03 0.02 0.03 0.03 0.05 0.04 0.03 0.03 0.04 0.03 0.03 0.03 0.03 0.02 0.02 0.02 0.02 0.02 0.03 0.03 0.03 0.03 0.03 0.04 0.03 0.04 0.04 0.04 0.03 0.03 0.03 0.03 0.03 0.03 0.04 0.05 0.06 0.06 0.06 0.06
0.02 0.03 0.02 0.02 0.02 0.02 0.03 0.03 0.03 0.02 0.02 0.03 0.03 0.02 0.02 0.02 0.01 0.01 0.02 0.01 0.02 0.04 0.04 0.05 0.05 0.07 0.07 0.07 0.05 0.04 0.03 0.03 0.03 0.03 0.03 0.03 0.03 0.04 0.04 0.05 0.05 0.05 0.05
0.01 0.03 0.03 0.03 0.03 0.03 0.03 0.03 0.03 0.03 0.03 0.03 0.02 0.02 0.02 0.02 0.02 0.02 0.02 0.02 0.02 0.03 0.04 0.04 0.06 0.08 0.08 0.08 0.08 0.08 0.06 0.04 0.04 0.04 0.04 0.04 0.04 0.04 0.04 0.05 0.05 0.06 0.06
0.01 0.01 0.02 0.03 0.04 0.04 0.04 0.04 0.04 0.04 0.03 0.02 0.02 0.02 0.02 0.03 0.03 0.03 0.03 0.03 0.04 0.03 0.03 0.03 0.05 0.07 0.07 0.07 0.07 0.07 0.06 0.05 0.04 0.04 0.04 0.04 0.04 0.05 0.04 0.04 0.05 0.05 0.07
0.00 0.01 0.02 0.02 0.04 0.04 0.03 0.04 0.04 0.04 0.04 0.03 0.03 0.03 0.03 0.03 0.04 0.04 0.04 0.04 0.04 0.04 0.04 0.04 0.04 0.05 0.06 0.06 0.07 0.07 0.07 0.06 0.05 0.04 0.04 0.04 0.04 0.04 0.04 0.03 0.02 0.03 0.04
0.00 0.00 0.01 0.01 0.02 0.03 0.02 0.02 0.02 0.02 0.01 0.01 0.01 0.01 0.02 0.02 0.02 0.02 0.03 0.03 0.03 0.04 0.04 0.04 0.03 0.03 0.04 0.05 0.06 0.07 0.07 0.07 0.06 0.05 0.05 0.04 0.04 0.03 0.03 0.02 0.02 0.02 0.02
0.00 0.00 0.00 0.01 0.01 0.01 0.02 0.02 0.02 0.01 0.01 0.01 0.01 0.01 0.01 0.01 0.02 0.01 0.01 0.01 0.02 0.02 0.03 0.02 0.02 0.02 0.03 0.03 0.04 0.06 0.06 0.06 0.06 0.05 0.05 0.05 0.04 0.03 0.03 0.03 0.02 0.02 0.02
0.01 0.01 0.01 0.00 0.01 0.01 0.01 0.01 0.01 0.01 0.01 0.01 0.00 0.00 0.01 0.01 0.01 0.01 0.01 0.01 0.01 0.01 0.01 0.01 0.02 0.02 0.03 0.03 0.03 0.04 0.05 0.05 0.06 0.06 0.05 0.04 0.04 0.04 0.03 0.03 0.03 0.03 0.02
0.01 0.01 0.01 0.01 0.01 0.01 0.01 0.01 0.01 0.00 0.00 0.00 0.00 0.00 0.01 0.01 0.00 0.00 0.00 0.00 0.00 0.01 0.01 0.01 0.01 0.02 0.02 0.02 0.02 0.02 0.03 0.03 0.04 0.05 0.04 0.04 0.04 0.04 0.03 0.03 0.03 0.03 0.03
0.00 0.00 0.00 0.00 0.00 0.00 0.01 0.01 0.01 0.00 0.00 0.00 0.00 0.00 0.01 0.01 0.00 0.00 0.00 0.00 0.00 0.00 0.00 0.01 0.01 0.01 0.01 0.01 0.01 0.02 0.02 0.02 0.02 0.03 0.03 0.03 0.04 0.04 0.03 0.03 0.03 0.03 0.03
MSLP
1007.44 1008.37 1009.31 1010.23 1011.08 1011.86 1012.54 1013.14 1013.67 1014.15 1014.60 1015.07 1015.55 1016.06 1016.60 1017.16 1017.71 1018.25 1018.76 1019.22 1019.64 1020.02 1020.35 1020.66 1020.96 1021.24 1021.53 1021.83 1022.12 1022.40 1022.66 1022.88 1023.06 1023.18 1023.24 1023.25 1023.22 1023.16 1023.11 1023.07 1023.07 1023.10 1023.18
1007.12 1008.05 1008.97 1009.86 1010.69 1011.45 1012.13 1012.74 1013.29 1013.79 1014.27 1014.76 1015.25 1015.78 1016.33 1016.90 1017.48 1018.06 1018.61 1019.12 1019.59 1020.00 1020.36 1020.69 1020.98 1021.25 1021.52 1021.78 1022.05 1022.32 1022.58 1022.82 1023.02 1023.18 1023.28 1023.34 1023.34 1023.33 1023.29 1023.28 1023.28 1023.33 1023.43
1006.86 1007.79 1008.69 1009.54 1010.34 1011.09 1011.77 1012.39 1012.96 1013.50 1014.02 1014.53 1015.06 1015.60 1016.16 1016.74 1017.32 1017.91 1018.48 1019.01 1019.50 1019.94 1020.33 1020.67 1020.97 1021.24 1021.50 1021.77 1022.03 1022.30 1022.57 1022.82 1023.05 1023.24 1023.38 1023.46 1023.50 1023.51 1023.50 1023.49 1023.51 1023.58 1023.69
1006.64 1007.57 1008.44 1009.26 1010.03 1010.75 1011.43 1012.07 1012.69 1013.27 1013.84 1014.40 1014.96 1015.52 1016.09 1016.66 1017.24 1017.81 1018.36 1018.89 1019.38 1019.82 1020.22 1020.57 1020.89 1021.18 1021.45 1021.72 1022.00 1022.29 1022.57 1022.85 1023.10 1023.32 1023.48 1023.60 1023.66 1023.68 1023.68 1023.68 1023.71 1023.79 1023.92
1006.44 1007.37 1008.22 1009.00 1009.73 1010.44 1011.12 1011.79 1012.45 1013.09 1013.73 1014.34 1014.94 1015.53 1016.10 1016.66 1017.20 1017.74 1018.25 1018.75 1019.21 1019.64 1020.04 1020.39 1020.72 1021.03 1021.33 1021.63 1021.94 1022.25 1022.56 1022.86 1023.14 1023.38 1023.57 1023.69 1023.77 1023.80 1023.80 1023.82 1023.85 1023.94 1024.09
1006.26 1007.17 1007.99 1008.73 1009.43 1010.12 1010.81 1011.51 1012.22 1012.93 1013.63 1014.31 1014.95 1015.56 1016.14 1016.68 1017.19 1017.67 1018.13 1018.58 1019.00 1019.40 1019.78 1020.14 1020.48 1020.81 1021.14 1021.48 1021.81 1022.16 1022.50 1022.82 1023.12 1023.38 1023.58 1023.72 1023.80 1023.84 1023.85 1023.87 1023.92 1024.02 1024.19
1006.06 1006.96 1007.74 1008.45 1009.12 1009.79 1010.49 1011.22 1011.98 1012.75 1013.51 1014.24 1014.93 1015.57 1016.14 1016.66 1017.14 1017.57 1017.98 1018.37 1018.75 1019.12 1019.48 1019.84 1020.20 1020.55 1020.91 1021.27 1021.64 1022.01 1022.37 1022.72 1023.03 1023.30 1023.51 1023.66 1023.75 1023.80 1023.82 1023.84 1023.90 1024.02 1024.21
1005.83 1006.71 1007.46 1008.14 1008.80 1009.46 1010.17 1010.92 1011.71 1012.53 1013.33 1014.11 1014.83 1015.48 1016.05 1016.56 1017.01 1017.41 1017.78 1018.13 1018.48 1018.83 1019.18 1019.54 1019.91 1020.28 1020.65 1021.04 1021.43 1021.82 1022.20 1022.55 1022.87 1023.15 1023.36 1023.52 1023.62 1023.67 1023.71 1023.76 1023.83 1023.96 1024.17
1005.54 1006.40 1007.14 1007.81 1008.46 1009.13 1009.85 1010.62 1011.43 1012.26 1013.09 1013.88 1014.61 1015.26 1015.84 1016.33 1016.77 1017.16 1017.52 1017.86 1018.20 1018.55 1018.91 1019.28 1019.65 1020.04 1020.43 1020.82 1021.22 1021.61 1021.98 1022.34 1022.65 1022.92 1023.15 1023.31 1023.42 1023.50 1023.56 1023.63 1023.73 1023.88 1024.10
1005.18 1006.03 1006.78 1007.46 1008.13 1008.82 1009.54 1010.32 1011.13 1011.95 1012.77 1013.55 1014.26 1014.91 1015.48 1015.97 1016.41 1016.81 1017.19 1017.55 1017.92 1018.29 1018.68 1019.07 1019.46 1019.86 1020.26 1020.65 1021.03 1021.41 1021.76 1022.10 1022.40 1022.67 1022.89 1023.06 1023.20 1023.30 1023.39 1023.49 1023.62 1023.80 1024.04
1004.74 1005.60 1006.38 1007.10 1007.81 1008.52 1009.27 1010.04 1010.83 1011.63 1012.41 1013.14 1013.82 1014.44 1014.99 1015.49 1015.95 1016.38 1016.80 1017.21 1017.63 1018.06 1018.49 1018.91 1019.33 1019.74 1020.13 1020.51 1020.87 1021.22 1021.55 1021.85 1022.13 1022.39 1022.61 1022.80 1022.95 1023.09 1023.22 1023.36 1023.53 1023.74 1024.00
1004.22 1005.11 1005.93 1006.72 1007.49 1008.25 1009.02 1009.79 1010.56 1011.30 1012.02 1012.69 1013.32 1013.89 1014.42 1014.92 1015.40 1015.88 1016.36 1016.84 1017.33 1017.83 1018.31 1018.78 1019.23 1019.65 1020.04 1020.40 1020.73 1021.04 1021.33 1021.60 1021.86 1022.10 1022.32 1022.52 1022.70 1022.88 1023.06 1023.24 1023.45 1023.69 1023.98
1003.65 1004.57 1005.46 1006.32 1007.17 1007.99 1008.79 1009.56 1010.29 1010.99 1011.64 1012.24 1012.79 1013.31 1013.82 1014.32 1014.82 1015.34 1015.88 1016.44 1017.01 1017.57 1018.12 1018.64 1019.12 1019.54 1019.93 1020.26 1020.56 1020.84 1021.09 1021.33 1021.57 1021.79 1022.01 1022.23 1022.45 1022.66 1022.88 1023.12 1023.37 1023.65 1023.97
1003.06 1004.00 1004.96 1005.90 1006.83 1007.71 1008.55 1009.33 1010.04 1010.68 1011.26 1011.79 1012.28 1012.75 1013.22 1013.71 1014.24 1014.80 1015.39 1016.02 1016.65 1017.28 1017.87 1018.43 1018.92 1019.36 1019.74 1020.05 1020.33 1020.57 1020.80 1021.02 1021.24 1021.46 1021.69 1021.93 1022.17 1022.42 1022.69 1022.97 1023.27 1023.59 1023.94
1002.47 1003.44 1004.44 1005.45 1006.45 1007.39 1008.26 1009.05 1009.74 1010.35 1010.88 1011.35 1011.78 1012.21 1012.66 1013.15 1013.68 1014.27 1014.90 1015.57 1016.24 1016.90 1017.53 1018.11 1018.61 1019.05 1019.42 1019.72 1019.98 1020.21 1020.43 1020.64 1020.85 1021.08 1021.32 1021.58 1021.86 1022.15 1022.45 1022.77 1023.12 1023.48 1023.86
1001.95 1002.90 1003.92 1004.98 1006.01 1006.99 1007.89 1008.68 1009.37 1009.96 1010.46 1010.90 1011.30 1011.71 1012.15 1012.63 1013.16 1013.76 1014.41 1015.09 1015.77 1016.44 1017.07 1017.64 1018.14 1018.57 1018.93 1019.23 1019.49 1019.71 1019.93 1020.15 1020.38 1020.62 1020.89 1021.17 1021.48 1021.80 1022.14 1022.50 1022.89 1023.29 1023.71
1001.55 1002.45 1003.44 1004.48 1005.51 1006.49 1007.40 1008.20 1008.88 1009.47 1009.96 1010.40 1010.80 1011.21 1011.65 1012.13 1012.67 1013.27 1013.91 1014.57 1015.23 1015.88 1016.48 1017.02 1017.50 1017.91 1018.26 1018.56 1018.82 1019.07 1019.31 1019.55 1019.80 1020.08 1020.37 1020.69 1021.02 1021.37 1021.75 1022.14 1022.56 1023.00 1023.46
1001.30 1002.10 1003.01 1003.98 1004.96 1005.90 1006.78 1007.56 1008.24 1008.84 1009.35 1009.81 1010.24 1010.68 1011.14 1011.64 1012.18 1012.76 1013.37 1014.00 1014.62 1015.21 1015.76 1016.26 1016.70 1017.09 1017.42 1017.72 1018.00 1018.27 1018.54 1018.82 1019.12 1019.43 1019.76 1020.11 1020.47 1020.86 1021.26 1021.69 1022.14 1022.62 1023.12
1001.25 1001.90 1002.67 1003.51 1004.37 1005.23 1006.04 1006.78 1007.45 1008.05 1008.60 1009.10 1009.59 1010.07 1010.57 1011.09 1011.64 1012.21 1012.78 1013.36 1013.92 1014.44 1014.93 1015.36 1015.76 1016.11 1016.44 1016.74 1017.04 1017.34 1017.65 1017.97 1018.31 1018.67 1019.04 1019.43 1019.83 1020.24 1020.68 1021.13 1021.62 1022.14 1022.68
1001.41 1001.87 1002.45 1003.10 1003.80 1004.52 1005.22 1005.89 1006.53 1007.13 1007.71 1008.26 1008.80 1009.34 1009.89 1010.44 1011.00 1011.55 1012.10 1012.62 1013.11 1013.57 1013.98 1014.36 1014.70 1015.02 1015.33 1015.64 1015.96 1016.29 1016.65 1017.01 1017.40 1017.80 1018.22 1018.64 1019.08 1019.53 1020.00 1020.50 1021.02 1021.58 1022.16
1001.77 1002.01 1002.36 1002.79 1003.28 1003.82 1004.38 1004.95 1005.53 1006.12 1006.70 1007.29 1007.88 1008.48 1009.07 1009.65 1010.22 1010.77 1011.28 1011.76 1012.19 1012.58 1012.93 1013.25 1013.56 1013.85 1014.15 1014.47 1014.81 1015.17 1015.56 1015.98 1016.41 1016.85 1017.31 1017.77 1018.25 1018.74 1019.25 1019.79 1020.36 1020.96 1021.59
1002.29 1002.31 1002.41 1002.60 1002.86 1003.20 1003.59 1004.03 1004.53 1005.06 1005.64 1006.24 1006.86 1007.49 1008.11 1008.72 1009.30 1009.84 1010.33 1010.77 1011.15 1011.49 1011.80 1012.08 1012.36 1012.64 1012.93 1013.26 1013.62 1014.01 1014.44 1014.89 1015.36 1015.84 1016.34 1016.84 1017.36 1017.89 1018.45 1019.03 1019.64 1020.29 1020.97
1002.92 1002.72 1002.60 1002.55 1002.58 1002.70 1002.91 1003.21 1003.59 1004.05 1004.58 1005.16 1005.77 1006.41 1007.04 1007.65 1008.23 1008.76 1009.23 1009.64 1010.00 1010.31 1010.59 1010.86 1011.12 1011.40 1011.71 1012.05 1012.43 1012.85 1013.30 1013.78 1014.28 1014.80 1015.33 1015.87 1016.43 1017.01 1017.60 1018.24 1018.90 1019.60 1020.32
1003.57 1003.20 1002.88 1002.62 1002.45 1002.37 1002.41 1002.55 1002.80 1003.16 1003.60 1004.12 1004.70 1005.30 1005.91 1006.49 1007.05 1007.56 1008.01 1008.41 1008.75 1009.06 1009.34 1009.61 1009.89 1010.18 1010.51 1010.87 1011.28 1011.72 1012.20 1012.70 1013.23 1013.77 1014.33 1014.90 1015.50 1016.11 1016.76 1017.43 1018.13 1018.87 1019.63
1004.18 1003.68 1003.21 1002.80 1002.46 1002.22 1002.10 1002.09 1002.21 1002.45 1002.79 1003.21 1003.70 1004.23 1004.77 1005.31 1005.82 1006.29 1006.72 1007.10 1007.45 1007.76 1008.06 1008.35 1008.66 1008.99 1009.35 1009.75 1010.18 1010.65 1011.14 1011.67 1012.21 1012.78 1013.36 1013.96 1014.59 1015.23 1015.91 1016.62 1017.36 1018.12 1018.91
1004.69 1004.12 1003.56 1003.05 1002.60 1002.24 1002.00 1001.86 1001.85 1001.96 1002.17 1002.47 1002.84 1003.26 1003.70 1004.15 1004.60 1005.02 1005.41 1005.78 1006.12 1006.45 1006.78 1007.12 1007.46 1007.84 1008.24 1008.67 1009.14 1009.63 1010.15 1010.69 1011.25 1011.83 1012.43 1013.05 1013.70 1014.37 1015.08 1015.81 1016.57 1017.34 1018.13
Thickness
5670 5669 5667 5665 5663 5662 5659 5656 5655 5653 5651 5648 5646 5644 5642 5640 5638 5636 5635 5634 5632 5631 5630 5629 5628 5628 5627 5627 5627 5626 5626 5625 5623 5625 5628 5630 5631 5631 5632 5634 5635 5636 5637
5663 5662 5659 5658 5656 5654 5651 5649 5647 5645 5643 5641 5639 5636 5634 5632 5630 5627 5626 5625 5623 5622 5621 5620 5619 5620 5618 5618 5618 5617 5617 5618 5617 5616 5619 5622 5623 5624 5626 5627 5629 5630 5630
5656 5654 5652 5650 5647 5645 5643 5641 5640 5637 5635 5633 5631 5628 5625 5623 5620 5618 5617 5616 5615 5614 5613 5612 5611 5610 5609 5609 5609 5609 5609 5610 5610 5610 5611 5613 5615 5617 5618 5620 5622 5623 5624
5649 5647 5644 5641 5639 5637 5635 5633 5631 5629 5626 5623 5621 5619 5616 5614 5611 5609 5607 5606 5605 5604 5604 5603 5602 5601 5600 5600 5600 5600 5600 5600 5601 5601 5602 5604 5605 5608 5609 5610 5612 5614 5616
5643 5640 5636 5634 5631 5629 5626 5624 5622 5619 5617 5614 5611 5609 5607 5604 5601 5599 5597 5597 5595 5594 5593 5593 5592 5592 5592 5591 5591 5590 5590 5589 5590 5591 5592 5593 5595 5596 5598 5601 5602 5605 5607
5636 5632 5630 5627 5623 5620 5618 5615 5612 5609 5606 5603 5600 5598 5596 5594 5591 5589 5587 5586 5585 5584 5583 5582 5582 5581 5581 5581 5581 5581 5581 5580 5580 5581 5582 5583 5585 5588 5590 5593 5593 5594 5595
5628 5625 5622 5619 5615 5611 5609 5606 5602 5599 5596 5593 5590 5587 5585 5583 5581 5580 5579 5578 5576 5576 5575 5573 5573 5572 5569 5568 5569 5571 5571 5572 5573 5572 5572 5574 5576 5579 5581 5583 5585 5586 5588
5620 5617 5614 5610 5606 5603 5600 5596 5593 5590 5587 5584 5581 5578 5576 5575 5573 5572 5571 5569 5568 5567 5566 5565 5563 5561 5560 5558 5558 5559 5560 5562 5564 5564 5565 5567 5569 5571 5573 5575 5576 5580 5582
5612 5609 5606 5603 5599 5595 5592 5588 5585 5582 5579 5576 5574 5571 5568 5567 5565 5564 5562 5561 5560 5559 5557 5556 5554 5552 5552 5551 5550 5550 5550 5552 5554 5556 5557 5559 5561 5563 5565 5566 5567 5568 5570
5605 5602 5598 5595 5591 5588 5585 5582 5579 5576 5572 5569 5567 5565 5563 5560 5559 5557 5555 5553 5551 5550 5549 5547 5546 5545 5544 5543 5542 5541 5541 5543 5545 5547 5548 5550 5552 5554 5556 5557 5558 5558 5560
5598 5595 5591 5587 5584 5581 5578 5575 5572 5569 5565 5563 5560 5559 5556 5554 5552 5549 5547 5545 5543 5541 5540 5539 5538 5537 5536 5536 5535 5534 5534 5535 5536 5538 5539 5541 5543 5544 5546 5548 5549 5550 5551
5591 5588 5584 5581 5578 5575 5571 5568 5565 5562 5558 5556 5553 5551 5549 5547 5545 5542 5540 5539 5537 5535 5533 5531 5531 5530 5529 5528 5528 5528 5528 5528 5529 5530 5531 5532 5533 5535 5537 5539 5541 5542 5544
5583 5580 5577 5575 5572 5568 5565 5561 5558 5555 5552 5550 5547 5545 5542 5540 5538 5536 5533 5531 5530 5528 5527 5526 5525 5524 5522 5521 5521 5521 5521 5520 5521 5521 5522 5524 5525 5527 5529 5531 5532 5534 5535
5576 5573 5570 5567 5564 5561 5558 5556 5552 5549 5546 5544 5541 5539 5536 5534 5531 5528 5526 5524 5523 5521 5520 5519 5518 5517 5516 5515 5515 5514 5513 5513 5513 5514 5515 5516 5517 5518 5520 5521 5522 5523 5524
5568 5566 5563 5560 5557 5554 5551 5548 5546 5544 5542 5539 5537 5534 5531 5529 5527 5525 5522 5519 5517 5516 5514 5513 5512 5510 5509 5508 5508 5507 5507 5507 5506 5507 5508 5508 5509 5510 5511 5512 5513 5513 5513
5561 5558 5555 5552 5549 5546 5543 5540 5538 5537 5536 5534 5533 5531 5528 5526 5523 5519 5517 5516 5514 5513 5510 5508 5507 5506 5505 5504 5503 5502 5501 5500 5500 5500 5501 5501 5502 5502 5503 5504 5504 5505 5505
5553 5551 5548 5545 5542 5540 5537 5534 5531 5529 5528 5527 5527 5525 5523 5520 5517 5515 5512 5511 5510 5508 5505 5504 5503 5502 5500 5499 5498 5497 5495 5495 5494 5494 5494 5494 5495 5495 5495 5495 5496 5496 5497
5547 5544 5541 5538 5536 5533 5532 5530 5528 5525 5522 5520 5519 5518 5516 5514 5511 5508 5506 5504 5502 5501 5500 5499 5498 5496 5495 5493 5492 5492 5490 5489 5489 5488 5488 5488 5488 5488 5488 5487 5488 5488 5489
5540 5537 5534 5531 5530 5528 5527 5525 5523 5520 5517 5515 5512 5510 5509 5506 5504 5501 5499 5497 5496 5494 5493 5492 5491 5490 5488 5487 5486 5486 5485 5484 5483 5483 5482 5482 5481 5481 5481 5481 5481 5481 5481
5533 5532 5529 5526 5524 5522 5521 5519 5517 5514 5512 5509 5507 5504 5501 5498 5496 5493 5492 5490 5489 5488 5487 5485 5484 5482 5481 5480 5480 5479 5478 5478 5478 5477 5476 5475 5475 5474 5474 5474 5474 5473 5473
5527 5525 5523 5521 5518 5517 5515 5513 5511 5509 5506 5504 5501 5499 5497 5493 5491 5488 5486 5484 5483 5482 5481 5479 5478 5476 5475 5474 5473 5472 5472 5471 5470 5470 5469 5468 5468 5467 5467 5467 5466 5466 5466
5521 5519 5517 5515 5513 5511 5509 5508 5505 5503 5501 5498 5496 5493 5491 5488 5485 5483 5481 5479 5478 5476 5475 5473 5472 5470 5469 5468 5467 5466 5465 5464 5463 5462 5461 5461 5460 5460 5460 5459 5458 5458 5458
5514 5512 5510 5509 5507 5505 5503 5501 5499 5497 5495 5493 5490 5488 5484 5482 5480 5478 5476 5474 5472 5471 5469 5467 5465 5464 5463 5462 5460 5459 5458 5457 5456 5455 5454 5454 5453 5452 5452 5452 5451 5451 5450
5506 5505 5503 5502 5500 5498 5496 5494 5493 5491 5489 5487 5485 5482 5479 5477 5475 5473 5470 5468 5466 5465 5463 5461 5460 5458 5457 5456 5454 5453 5451 5450 5449 5447 5447 5445 5445 5445 5444 5443 5443 5443 5442
5499 5498 5496 5494 5493 5491 5489 5487 5486 5484 5482 5481 5479 5477 5474 5471 5468 5466 5464 5462 5460 5458 5457 5455 5453 5452 5450 5449 5447 5446 5444 5443 5442 5440 5439 5438 5437 5437 5436 5435 5435 5434 5434
5492 5491 5489 5487 5486 5484 5482 5480 5479 5477 5476 5474 5472 5470 5468 5465 5462 5460 5458 5456 5454 5453 5451 5448 5447 5445 5443 5442 5440 5439 5437 5436 5435 5433 5432 5431 5430 5429 5428 5427 5427 5426 5425